Lexington Weather

Lexington, Massachusetts, USA

76°F
7/25/2024 11:14am 
  • Lexington Conditions: Mostly cloudy
  • Temperature: 76.3°F / 24.6°CWarmer 1.3°F than last hour.
  • Dew Point: 72.1°FIncreased 0.1°Fsince last hour.
  • Relative Humidity: 87%Decreased 3.0% since last hour.
  • Wind: Wind from W W 2 mph, 10-min avg: 2 mph, gust: 8 mph
  • Barometer: 29.95 inFalling 0.02  inHg/hr Falling Slowly
  • Visibility: 10 miles
  • Rain Today: 0.00 in
  •   

Regional Weather Roundup
for Boston, MA

        
000
ASUS41 KBOX 232210
RWRBOX

REGIONAL WEATHER ROUNDUP
NATIONAL WEATHER SERVICE BOSTON/NORTON MA
600 PM EDT TUE JUL 23 2024

NOTE:  "FAIR" INDICATES FEW OR NO CLOUDS BELOW 12,000 FEET WITH NO 
SIGNIFICANT WEATHER AND/OR OBSTRUCTIONS TO VISIBILITY.

MAZALL-232300-
EASTERN MASSACHUSETTS
  
CITY           SKY/WX    TMP DP  RH WIND       PRES   REMARKS
BOSTON         PTSUNNY   71  65  81 E10       30.09S                  
BEVERLY        CLOUDY    72  64  76 SE6       30.09R                  
LAWRENCE       CLOUDY    71  69  93 N3        30.11R                  
BEDFORD        CLOUDY    77  61  57 SE9       30.07R                  
NORWOOD        CLOUDY    76  67  73 SE6       30.09R                  
MARSHFIELD     CLOUDY    72  64  78 E5        30.09S                  
PLYMOUTH       PTSUNNY   73  64  73 SE8       30.09S                  
TAUNTON        CLOUDY    77  64  64 E6        30.08S                  
NEW BEDFORD    CLOUDY    77  66  68 E6        30.07S                  
$$

MAZALL-232300-
CAPE COD AND THE ISLANDS
  
CITY           SKY/WX    TMP DP  RH WIND       PRES   REMARKS
FALMOUTH       CLOUDY    70  64  83 NE8       30.10                   
HYANNIS        CLOUDY    72  66  81 NE8       30.07S                  
CHATHAM        PTSUNNY   72  66  81 E8        30.09S                  
PROVINCETOWN   PTSUNNY   72  67  84 NE5       30.10R                  
NANTUCKET      CLOUDY    70  66  87 NE12      30.08R                  
MARTHAS VNYRD  PTSUNNY   73  66  78 E8        30.08S                  
$$
 
MAZALL-232300-
CENTRAL AND WESTERN MASSACHUSETTS
  
CITY           SKY/WX    TMP DP  RH WIND       PRES   REMARKS
WORCESTER      CLOUDY    72  64  76 SE8       30.11S                  
FITCHBURG      CLOUDY    73  68  84 E5        30.09S                  
ORANGE           N/A     74  67  78 SE8       30.09S                  
SPRINGFIELD    CLOUDY    75  67  77 SE5       30.04S                  
WESTFIELD      CLOUDY    76  69  79 SE3       30.07R                  
NORTH ADAMS    PTSUNNY   77  65  66 W5        30.06S                  
PITTSFIELD     CLOUDY    74  65  73 S5        30.08S                  
$$
 
RIZALL-232300-
RHODE ISLAND
  
CITY           SKY/WX    TMP DP  RH WIND       PRES   REMARKS
PROVIDENCE     PTSUNNY   75  68  78 SE5       30.08S                  
NEWPORT        CLOUDY    72  67  84 SE3       30.08S                  
BLOCK ISLAND   CLOUDY    69  68  96 E5          N/A                   
SMITHFIELD     CLOUDY    74  68  81 VRB3      30.10S                  
WESTERLY       CLOUDY    72  67  84 SE7       30.08S                  
$$
 
CTZALL-232300-
CONNECTICUT
  
CITY           SKY/WX    TMP DP  RH WIND       PRES   REMARKS
BRADLEY INTL   CLOUDY    78  69  73 SE7       30.07S                  
HARTFORD       PTSUNNY   77  69  76 VRB5      30.06S                  
PLAINVILLE     CLOUDY    76  70  84 S3        30.08R                  
BRIDGEPORT     PTSUNNY   75  69  81 E9        30.07R                  
DANBURY        LGT RAIN  75  70  84 E5        30.09R                  
GROTON         CLOUDY    72  69  90 SE8       30.08R                  
NEW HAVEN      CLOUDY    77  71  82 SE8       30.07S                  
CHESTER        CLOUDY    75  72  88 CALM      30.09R                  
MERIDEN        CLOUDY    77  67  71 CALM      30.07R                  
WILLIMANTIC    LGT RAIN  70  68  93 E3        30.09R FOG              
OXFORD         CLOUDY    72  69  90 CALM      30.11R                  
$$

MEZ002-015-021-024-NHZ003-005-008-011-012-014-VTZ005-008-232300-
NORTHERN NEW ENGLAND
  
CITY           SKY/WX    TMP DP  RH WIND       PRES   REMARKS
PORTLAND ME    CLOUDY    70  65  84 S8        30.09R                  
BANGOR ME      PTSUNNY   71  64  78 NE7       30.10R                  
CONCORD NH     LGT RAIN  69  68  96 CALM      30.10R FOG              
MANCHESTER NH  LGT RAIN  71  68  90 SE3       30.09R FOG              
NASHUA NH      CLOUDY    70  70 100 VRB3      30.10S                  
PORTSMOUTH NH  CLOUDY    74  65  74 W5        30.08R                  
JAFFREY NH     CLOUDY    71  67  87 CALM      30.11F                  
KEENE NH       CLOUDY    72  65  78 S3        30.08R                  
BURLINGTON VT  PTSUNNY   80  65  59 N6        30.06S                  
MT. WASHINGTON FOG       52  52 100 SW3         N/A  VSB 1/16         
$$

NYZ052-076-232300-
EASTERN NEW YORK
  
CITY           SKY/WX    TMP DP  RH WIND       PRES   REMARKS
ALBANY         PTSUNNY   82  66  58 S7        30.04S                  
NEW YORK CITY  PTSUNNY   77  68  73 NE14G24   30.05R                  
$$
 
ANZALL-232300-
MARINE OBSERVATIONS
  
STATION/POSITION TIME  TEMP    WIND        PRES    VSBY  WAVE
                       AIR SEA DIR/SP/G                  HT/PER
                 (UTC) (F)     (DEG/KT/KT) (MB)    (MI)  (FT/S)
BOSTON BUOY      2150   68 68  180/  4/  4 1019.5R         1/ 4
BUZZARDS BAY     2100   69      90/  5/  5 1018.5R
NANTUCKET SOUND  2150   71 76   70/ 12/ 14 1018.0S         1
MASS BAY-STELLWA 2004   71 63  180/  4/  4 1018.8R  1 7/8  1/ 8
ISLE OF SHOALS   2100   68     150/  1/  1 1018.1R
S OF BLOCK IS    2156      75                N/A           4/ 7
$$

......................KEY.........................
  SKY/WX - SKY CONDITION/PRESENT WEATHER
  TMP    - TEMPERATURE IN FAHRENHEIT
  DWPT   - DEWPOINT IN FAHRENHEIT
  RH     - RELATIVE HUMIDITY IN PERCENT
  WIND   - DIRECTION AND SPEED IN MPH
  PRES   - MEAN SEA LEVEL PRESSURE IN INCHES OF HG
  WCI    - WIND CHILL INDEX
  VSB    - VISIBILITY IN MILES
  HX     - HEAT INDEX
  TC     - TEMPERATURE IN CELSIUS
  VRB    - VARIABLE WIND DIRECTION
  N/A    - NOT AVAILABLE
  
      

Other recent Regional Weather Roundups

Thu Jul 25, 10:10am EDT

Thu Jul 25, 9:10am EDT

Thu Jul 25, 8:10am EDT

Thu Jul 25, 7:10am EDT

Thu Jul 25, 6:10am EDT

Thu Jul 25, 5:10am EDT

Thu Jul 25, 4:10am EDT

Thu Jul 25, 3:10am EDT

Thu Jul 25, 2:10am EDT

Thu Jul 25, 1:10am EDT

Thu Jul 25, 12:10am EDT

Wed Jul 24, 11:10pm EDT

Wed Jul 24, 10:10pm EDT

Wed Jul 24, 9:10pm EDT

Wed Jul 24, 8:10pm EDT

Wed Jul 24, 7:10pm EDT

Wed Jul 24, 6:10pm EDT

Wed Jul 24, 5:10pm EDT

Wed Jul 24, 4:10pm EDT

Wed Jul 24, 3:10pm EDT

Wed Jul 24, 2:10pm EDT

Wed Jul 24, 1:10pm EDT

Wed Jul 24, 12:10pm EDT

Wed Jul 24, 11:10am EDT

Wed Jul 24, 10:10am EDT

Wed Jul 24, 9:10am EDT

Wed Jul 24, 8:10am EDT

Wed Jul 24, 7:10am EDT

Wed Jul 24, 6:10am EDT

Wed Jul 24, 5:10am EDT

Wed Jul 24, 4:10am EDT

Wed Jul 24, 3:10am EDT

Wed Jul 24, 2:10am EDT

Wed Jul 24, 1:10am EDT

Wed Jul 24, 12:10am EDT

Tue Jul 23, 11:10pm EDT

Tue Jul 23, 10:10pm EDT

Tue Jul 23, 9:10pm EDT

Tue Jul 23, 8:10pm EDT

Tue Jul 23, 7:10pm EDT

Tue Jul 23, 5:10pm EDT

Tue Jul 23, 4:10pm EDT

Tue Jul 23, 3:10pm EDT

Tue Jul 23, 2:10pm EDT

Tue Jul 23, 1:10pm EDT

Tue Jul 23, 12:10pm EDT

Tue Jul 23, 11:10am EDT

Tue Jul 23, 10:10am EDT

Tue Jul 23, 10:10am EDT

Tue Jul 23, 9:10am EDT

Tue Jul 23, 8:10am EDT

Tue Jul 23, 7:10am EDT

Tue Jul 23, 6:10am EDT

Tue Jul 23, 5:10am EDT

Tue Jul 23, 4:10am EDT

Tue Jul 23, 3:10am EDT

Tue Jul 23, 2:10am EDT

Tue Jul 23, 1:10am EDT

Tue Jul 23, 12:10am EDT

Mon Jul 22, 11:10pm EDT

Mon Jul 22, 10:10pm EDT

Mon Jul 22, 9:10pm EDT

Mon Jul 22, 8:10pm EDT

Mon Jul 22, 7:10pm EDT

Mon Jul 22, 6:10pm EDT

Mon Jul 22, 5:10pm EDT

Mon Jul 22, 4:10pm EDT

Mon Jul 22, 3:10pm EDT

Mon Jul 22, 2:10pm EDT

Mon Jul 22, 1:10pm EDT

Mon Jul 22, 12:10pm EDT

Mon Jul 22, 11:10am EDT

Mon Jul 22, 10:10am EDT

Mon Jul 22, 9:10am EDT

Mon Jul 22, 8:10am EDT

Mon Jul 22, 7:10am EDT

Mon Jul 22, 6:10am EDT

Mon Jul 22, 5:10am EDT

Mon Jul 22, 4:10am EDT

Mon Jul 22, 3:10am EDT

Mon Jul 22, 2:10am EDT

Mon Jul 22, 1:10am EDT

Mon Jul 22, 12:10am EDT

Sun Jul 21, 11:10pm EDT

Sun Jul 21, 10:10pm EDT

Sun Jul 21, 9:10pm EDT

Sun Jul 21, 8:10pm EDT

Sun Jul 21, 7:10pm EDT

Sun Jul 21, 6:10pm EDT

Sun Jul 21, 5:10pm EDT

Sun Jul 21, 4:10pm EDT

Sun Jul 21, 3:10pm EDT

Sun Jul 21, 2:10pm EDT

Sun Jul 21, 1:10pm EDT

Sun Jul 21, 12:10pm EDT

Sun Jul 21, 11:10am EDT

Sun Jul 21, 10:10am EDT

Sun Jul 21, 9:10am EDT

Sun Jul 21, 8:10am EDT

Sun Jul 21, 7:10am EDT

Sun Jul 21, 6:10am EDT

Sun Jul 21, 5:10am EDT

Sun Jul 21, 4:10am EDT

Sun Jul 21, 3:10am EDT

Sun Jul 21, 2:10am EDT

Sun Jul 21, 1:10am EDT

Sun Jul 21, 12:10am EDT

Sat Jul 20, 11:10pm EDT

Sat Jul 20, 10:10pm EDT

Sat Jul 20, 9:10pm EDT

Sat Jul 20, 8:10pm EDT

Sat Jul 20, 7:10pm EDT

Sat Jul 20, 6:10pm EDT

Sat Jul 20, 5:10pm EDT

Sat Jul 20, 4:10pm EDT

Sat Jul 20, 3:10pm EDT

Sat Jul 20, 2:10pm EDT

Sat Jul 20, 1:10pm EDT

Sat Jul 20, 12:10pm EDT

Sat Jul 20, 11:10am EDT

Sat Jul 20, 10:10am EDT

Sat Jul 20, 9:10am EDT

Sat Jul 20, 8:10am EDT

Sat Jul 20, 7:10am EDT

Sat Jul 20, 6:10am EDT

Sat Jul 20, 5:10am EDT

Sat Jul 20, 4:10am EDT

Sat Jul 20, 3:10am EDT

Sat Jul 20, 2:10am EDT

Sat Jul 20, 1:10am EDT

Sat Jul 20, 12:10am EDT

Fri Jul 19, 11:10pm EDT

Fri Jul 19, 10:10pm EDT

Fri Jul 19, 9:10pm EDT

Fri Jul 19, 8:10pm EDT

Fri Jul 19, 7:10pm EDT

Fri Jul 19, 6:10pm EDT

Fri Jul 19, 5:10pm EDT

Fri Jul 19, 4:10pm EDT

Fri Jul 19, 3:10pm EDT

Fri Jul 19, 2:10pm EDT

Fri Jul 19, 1:10pm EDT

Fri Jul 19, 12:10pm EDT

Fri Jul 19, 11:10am EDT

Fri Jul 19, 10:10am EDT

Fri Jul 19, 9:10am EDT

Fri Jul 19, 8:10am EDT

Fri Jul 19, 7:10am EDT

Fri Jul 19, 6:10am EDT

Fri Jul 19, 5:10am EDT

Fri Jul 19, 4:10am EDT

Fri Jul 19, 3:10am EDT

Fri Jul 19, 2:10am EDT

Fri Jul 19, 1:10am EDT

Fri Jul 19, 12:10am EDT

Thu Jul 18, 11:10pm EDT

Thu Jul 18, 10:10pm EDT

Thu Jul 18, 9:10pm EDT

Thu Jul 18, 8:10pm EDT

Thu Jul 18, 7:10pm EDT

Thu Jul 18, 6:10pm EDT

Thu Jul 18, 5:10pm EDT

Thu Jul 18, 4:10pm EDT

Thu Jul 18, 3:10pm EDT

Thu Jul 18, 2:10pm EDT

Thu Jul 18, 1:10pm EDT

Thu Jul 18, 12:10pm EDT

Thu Jul 18, 11:10am EDT